Flight Track Log - Related Links

Times and Time Zones

All times are in EDT time to prevent confusion due to time zone crossing. See the TCF3494 flight status page for this flight to view local times or setup timezone preferences in your user account.

Time Position Orientation Groundspeed Altitude Reporting Facility
EDT Latitude Longitude Course Direction KTS MPH feet Rate Location/Type
Sun 10:31:18 AM 39.8500 -104.7667 303° West 181 208 6,800  Level Denver TRACON
Sun 10:32:13 AM 39.8833 -104.8333 303° West 263 303 8,000 1,761 Climbing Denver TRACON
Sun 10:33:07 AM 39.9147 -104.9131 297° West 288 331 10,000 1,655 Climbing Denver Center
Sun 10:34:09 AM 39.9503 -105.0219 293° West 327 376 11,200 2,371 Climbing Denver Center
Sun 10:35:11 AM 39.9650 -105.1536 278° West 341 392 14,900 3,290 Climbing Denver Center
Sun 10:36:13 AM 39.9789 -105.2731 279° West 336 387 18,000 3,000 Climbing Denver Center
Sun 10:37:15 AM 39.9831 -105.3997 272° West 322 371 21,100 2,323 Climbing Denver Center
Sun 10:38:17 AM 39.9825 -105.5289 270° West 359 413 22,800 1,984 Climbing Denver Center
Sun 10:39:19 AM 39.9878 -105.6753 273° West 371 427 25,200 1,984 Climbing Denver Center
Sun 10:40:21 AM 39.9939 -105.8136 273° West 385 443 26,900 1,597 Climbing Denver Center
Sun 10:41:23 AM 40.0006 -105.9542 274° West 391 450 28,500 1,548 Climbing Denver Center
Sun 10:42:25 AM 40.0053 -106.1011 272° West 406 467 30,100 1,548 Climbing Denver Center
Sun 10:43:27 AM 40.0128 -106.2467 274° West 405 466 31,700 1,597 Climbing Denver Center
Sun 10:44:29 AM 40.0186 -106.3914 273° West 401 461 33,400 1,113 Climbing Denver Center
Sun 10:45:31 AM 40.0242 -106.5536 273° West 394 453 34,000 290 Climbing Denver Center
Sun 10:46:33 AM 40.0297 -106.6894 273° West 393 452 34,000  Level Denver Center
Sun 10:47:35 AM 40.0339 -106.8492 272° West 396 456 34,000  Level Denver Center
Sun 10:48:37 AM 40.0400 -106.9861 273° West 395 455 34,000  Level Denver Center
Sun 10:49:39 AM 40.0447 -107.1494 272° West 403 464 34,000  Level Denver Center
Sun 10:50:41 AM 40.0494 -107.2831 273° West 391 450 34,000  Level Denver Center
Sun 10:51:43 AM 40.0536 -107.4414 272° West 390 449 34,000  Level Denver Center
Sun 10:52:45 AM 40.0581 -107.5764 273° West 389 448 34,000  Level Denver Center
Sun 10:53:47 AM 40.0625 -107.7325 272° West 387 445 34,000  Level Denver Center
Sun 10:54:50 AM 40.0653 -107.8669 272° West 388 447 34,000  Level Denver Center
Sun 10:55:52 AM 40.0725 -108.0228 274° West 387 445 34,000  Level Denver Center
Sun 10:56:54 AM 40.0781 -108.1553 273° West 385 443 34,000  Level Denver Center
Sun 10:57:56 AM 40.0850 -108.3072 273° West 379 436 34,000  Level Denver Center
Sun 10:58:57 AM 40.0897 -108.4186 273° West 385 443 34,000  Level Denver Center
Sun 11:00:00 AM 40.0969 -108.5967 273° West 387 445 34,000  Level Denver Center
Sun 11:01:02 AM 40.1031 -108.7319 273° West 390 449 34,000  Level Denver Center
Sun 11:02:04 AM 40.1083 -108.8889 273° West 391 450 34,000  Level Denver Center
Sun 11:03:18 AM 40.1133 -109.0228 273° West 389 448 34,000  Level Denver Center
Sun 11:04:21 AM 40.1197 -109.2003 273° West 385 443 34,000  Level Denver Center
Sun 11:05:23 AM 40.1239 -109.3519 272° West 377 434 34,000  Level Denver Center
Sun 11:06:25 AM 40.1294 -109.4833 273° West 378 435 34,000  Level Denver Center
Sun 11:07:27 AM 40.1339 -109.6375 272° West 380 437 34,000  Level Denver Center
Sun 11:08:29 AM 40.1372 -109.7694 272° West 382 440 34,000  Level Denver Center
Sun 11:09:31 AM 40.1428 -109.9017 273° West 381 438 34,000  Level Denver Center
Sun 11:10:33 AM 40.1464 -110.0589 272° West 387 445 34,000 -339 Level Denver Center
Sun 11:11:35 AM 40.1494 -110.1975 272° West 397 457 33,300 -1,234 Descending Denver Center
Sun 11:12:54 AM 40.1467 -110.4108 269° West 409 471 31,100 -1,404 Descending Salt Lake Center
Sun 11:13:56 AM 40.1450 -110.5553 269° West 416 479 30,000 -1,645 Descending Salt Lake Center
Sun 11:14:58 AM 40.1431 -110.7272 269° West 425 489 27,700 -2,081 Descending Salt Lake Center
Sun 11:16:00 AM 40.1414 -110.8717 269° West 417 480 25,700 -2,032 Descending Salt Lake Center
Sun 11:17:02 AM 40.1403 -111.0247 270° West 383 441 23,500 -1,935 Descending Salt Lake Center
Sun 11:18:04 AM 40.1381 -111.1550 269° West 363 418 21,700 -1,790 Descending Salt Lake Center
Sun 11:19:06 AM 40.1367 -111.2822 269° West 355 409 19,800 -1,887 Descending Salt Lake Center
Sun 11:20:08 AM 40.1328 -111.4081 268° West 347 399 17,800 -1,597 Descending Salt Lake Center
Sun 11:21:10 AM 40.1314 -111.5264 269° West 327 376 16,500 -1,397 Descending Salt Lake Center
Sun 11:21:21 AM 40.1328 -111.5608 273° West 313 360 16,100 -387 Descending Salt Lake Center
Sun 11:22:12 AM 40.1608 -111.6314 298° West 315 362 16,100 -100 Level Salt Lake Center
Sun 11:22:21 AM 40.1678 -111.6694 283° West 320 368 16,000 -295 Descending Salt Lake Center
Sun 11:23:13 AM 40.2144 -111.7281 316° Northwest 335 386 15,800 -492 Descending Salt Lake Center
Sun 11:23:22 AM 40.2286 -111.7583 302° West 334 384 15,500 -1,548 Descending Salt Lake Center
Sun 11:24:15 AM 40.2908 -111.8319 318° Northwest 327 376 14,200 -1,600 Descending Salt Lake Center
Sun 11:24:22 AM 40.2981 -111.8472 302° West 333 383 13,900 -1,742 Descending Salt Lake Center
Sun 11:25:17 AM 40.3631 -111.9053 326° Northwest 329 379 12,400 -1,672 Descending Salt Lake Center
Sun 11:25:23 AM 40.3728 -111.9203 310° West 329 379 12,200 -1,791 Descending Salt Lake Center
Sun 11:26:24 AM 40.4631 -111.9406 350° North 342 394 10,400 -1,780 Descending Salt Lake Center
Sun 11:27:21 AM 40.5433 -111.9464 357° North 335 386 8,700 -2,000 Descending Salt Lake Center
Sun 11:27:24 AM 40.5536 -111.9522 337° Northwest 330 380 8,400 -1,548 Descending Salt Lake Center
Sun 11:28:23 AM 40.6231 -111.9556 358° North 282 325 7,100 -1,475 Descending Salt Lake Center
Sun 11:28:25 AM 40.6286 -111.9606 326° Northwest 256 295 6,900 -1,161 Descending Salt Lake Center
Sun 11:29:25 AM 40.6878 -111.9661 356° North 214 246 5,900 -934 Descending Salt Lake Center
Sun 11:30:27 AM 40.7372 -111.9689 358° North 163 188 5,000 -822 Descending Salt Lake Center
Sun 11:30:38 AM 40.7422 -111.9700 350° North 154 177 4,900 -677 Descending Salt Lake Center
Sun 11:31:29 AM 40.7764 -111.9731 356° North 144 166 4,300 -706 Descending Salt Lake Center

Login

Don't have an account? Register now (free) for customized features, flight alerts, and more!